{"data":{"norad_id":49399,"epoch":"2026-05-25T04:40:58.439712Z","epoch_age_seconds":58363,"freshness":"FRESH","line1":"1 49399U 21102E   26145.19512083  .00002894  00000+0  14495-3 0  9995","line2":"2 49399  97.3340 181.2174 0015672 333.2587  26.7837 15.18060574249957","mean_motion":15.18060574,"eccentricity":0.0015672,"inclination_deg":97.334,"raan_deg":181.2174,"arg_perigee_deg":333.2587,"mean_anomaly_deg":26.7837,"bstar":0.00014495,"rev_number":24995,"period_min":94.857874887409,"perigee_km":500.90477701675,"apogee_km":522.50029005066,"semimajor_km":6889.8395335337,"source":"CELESTRAK","updated_at":"2026-05-25T13:37:57.194414Z"}}